Weather History for Defiance, OH

Change the Weather History Date:

Monday, October 10, 2011

  Actual Average Record
Temperature  
Mean Temperature 65 °F -  
Max Temperature 79 °F 63 °F 88 °F (2010)
Min Temperature 51 °F 41 °F 29 °F (1989)
Growing Degree Days 15 (Base 50)    
Moisture  
Dew Point 51 °F    
Average Humidity 68    
Maximum Humidity 89    
Minimum Humidity 36    
Precipitation  
Precipitation 0.00 in - - ()
Sea Level Pressure  
Sea Level Pressure 30.22 in    
Wind  
Wind Speed 2 mph (ESE)    
Max Wind Speed 8 mph    
Max Gust Speed -    
Visibility 10 miles    
Events      
Averages and records for this station are not official NWS values.
T = Trace of Precipitation, MM = Missing Value Source: NWS Daily Summary

Daily Weather History Graph

Daily Weather History Graph

Search for Another Location

Airport:

Trip Planner

Search our weather history database for the weather conditions in past years. The results will help you decide how hot, cold, wet, or windy it might be!

Date:

Astronomy

Oct. 10, 2011 Rise Set
Actual Time 7:43 AM EDT 7:05 PM EDT
Civil Twilight 7:16 AM EDT 7:32 PM EDT
Nautical Twilight 6:44 AM EDT 8:04 PM EDT
Astronomical Twilight 6:11 AM EDT 8:36 PM EDT
Moon 6:08 PM EDT (10/10) 6:23 AM EDT (10/10)
Length of Visible Light 12h 16m
Length of Day
11h 21m
Waxing Gibbous, 98% of the Moon is Illuminated
Oct 10
Waxing Gibbous
Oct 11
Full
Oct 19
Last Quarter
Oct 26
New
Nov 2
First Quarter

Hourly Weather History & Observations

Time (EDT) Temp. Dew Point Humidity Pressure Visibility Wind Dir Wind Speed Gust Speed Precip Events Conditions
12:53 AM 55.0 °F 50.0 °F 83% 30.29 in 10.0 mi Calm Calm - N/A   Clear
1:53 AM 54.0 °F 48.9 °F 83% 30.29 in 10.0 mi Calm Calm - N/A   Clear
2:53 AM 53.1 °F 48.9 °F 86% 30.29 in 10.0 mi Calm Calm - N/A   Clear
3:53 AM 51.1 °F 48.0 °F 89% 30.28 in 9.0 mi Calm Calm - N/A   Clear
4:53 AM 53.1 °F 48.9 °F 86% 30.27 in - Calm Calm - N/A   Clear
5:53 AM 54.0 °F 50.0 °F 86% 30.27 in - Calm Calm - N/A   Clear
6:53 AM 51.1 °F 46.9 °F 86% 30.27 in - Calm Calm - N/A   Clear
7:53 AM 51.1 °F 48.0 °F 89% 30.28 in - Calm Calm - N/A   Clear
9:53 AM 59.0 °F 53.1 °F 81% 30.29 in - Calm Calm - N/A   Clear
10:53 AM 62.1 °F 54.0 °F 75% 30.29 in - East 4.6 mph - N/A   Clear
11:53 AM 66.9 °F 52.0 °F 59% 30.27 in - ESE 3.5 mph - N/A   Clear
12:53 PM 71.1 °F 54.0 °F 55% 30.25 in - SSE 8.1 mph - N/A   Clear
2:53 PM 75.9 °F 53.1 °F 45% 30.20 in 10.0 mi SSE 4.6 mph - N/A   Clear
3:53 PM 77.0 °F 51.1 °F 40% 30.18 in 10.0 mi South 4.6 mph - N/A   Clear
4:53 PM 79.0 °F 50.0 °F 36% 30.15 in 10.0 mi Variable 6.9 mph - N/A   Clear
5:53 PM 78.1 °F 52.0 °F 40% 30.14 in 10.0 mi ESE 4.6 mph - N/A   Clear
6:53 PM 73.0 °F 51.1 °F 46% 30.13 in 10.0 mi East 4.6 mph - N/A   Clear
7:53 PM 68.0 °F 51.1 °F 55% 30.13 in 10.0 mi East 8.1 mph - N/A   Clear
8:53 PM 64.9 °F 51.1 °F 61% 30.14 in 10.0 mi East 6.9 mph - N/A   Clear
9:53 PM 62.1 °F 51.1 °F 67% 30.14 in 10.0 mi East 5.8 mph - N/A   Clear
10:53 PM 60.1 °F 50.0 °F 69% 30.14 in 10.0 mi East 3.5 mph - N/A   Clear
11:53 PM 57.0 °F 50.0 °F 77% 30.14 in 10.0 mi Calm Calm - N/A   Clear